Total_Precipitation_Accumulation
0.11 0.19 0.22 0.23 0.22 0.20 0.15 0.13 0.20 0.30 0.46 0.62 0.74 0.99 0.88 0.88 0.97 1.05 0.95 0.92 0.88 0.91 0.99 1.17 1.22 1.18 1.21 1.26 1.28 1.40 1.42 1.40 1.49 1.60 1.63 1.68 1.70 1.75 1.84 1.88 1.83 2.00 2.02 2.12
0.12 0.15 0.15 0.18 0.20 0.17 0.12 0.11 0.12 0.24 0.47 0.66 0.76 0.89 0.89 0.79 0.87 1.07 1.02 0.93 0.95 1.04 1.15 1.17 1.11 1.10 1.08 1.03 1.12 1.31 1.41 1.51 1.61 1.62 1.54 1.62 1.67 1.72 1.75 1.82 1.91 1.98 2.01 2.14
0.22 0.17 0.19 0.27 0.23 0.19 0.17 0.15 0.16 0.29 0.47 0.65 0.81 0.77 0.84 0.84 0.87 0.85 0.86 0.87 0.97 1.07 1.10 1.12 1.18 1.18 1.06 0.93 1.04 1.36 1.45 1.48 1.68 1.79 1.70 1.78 1.81 1.83 1.81 1.85 2.02 2.09 2.20 2.27
0.30 0.33 0.39 0.32 0.27 0.26 0.28 0.29 0.27 0.31 0.44 0.67 0.87 0.83 0.81 0.83 0.84 0.79 0.67 0.75 0.85 0.92 0.96 1.00 1.06 1.09 1.06 1.04 1.08 1.34 1.56 1.66 1.94 2.11 1.97 1.96 1.98 2.00 2.05 2.16 2.23 2.31 2.35 2.28
0.46 0.47 0.49 0.43 0.39 0.41 0.51 0.63 0.53 0.53 0.67 0.74 0.74 0.79 0.86 0.81 0.75 0.69 0.69 0.74 0.78 0.90 0.98 1.10 1.24 1.24 1.22 1.31 1.41 1.59 1.77 1.92 2.18 2.41 2.51 2.45 2.29 2.36 2.45 2.45 2.42 2.49 2.55 2.54
0.61 0.68 0.77 0.72 0.58 0.53 0.69 1.13 0.93 0.76 0.79 0.81 0.82 1.06 1.06 0.79 0.69 0.64 0.68 0.79 0.93 1.10 1.14 1.19 1.39 1.41 1.43 1.56 1.79 1.96 1.95 1.98 2.19 2.44 2.55 2.52 2.49 2.66 2.76 2.66 2.56 2.61 2.52 2.40
0.69 0.80 0.81 0.73 0.66 0.72 1.25 1.66 1.22 1.05 1.05 1.11 1.12 1.08 0.94 0.85 0.85 0.76 0.73 0.85 0.89 0.92 1.06 1.19 1.33 1.47 1.66 1.73 1.87 1.98 2.04 2.05 2.16 2.40 2.68 2.63 2.67 2.74 2.82 2.81 2.82 2.82 2.72 2.59
0.85 1.09 1.23 0.81 0.73 1.13 1.54 1.39 1.44 1.44 1.38 1.31 1.16 0.99 0.89 0.88 0.95 0.84 0.82 0.89 0.93 0.89 0.98 1.16 1.38 1.62 1.74 1.76 1.85 2.03 2.07 2.07 2.12 2.39 2.52 2.57 2.73 2.79 2.89 3.00 2.96 2.93 2.92 2.71
1.16 1.39 1.30 1.03 1.11 1.21 1.30 1.41 1.44 1.38 1.39 1.33 1.26 1.13 1.03 1.03 1.02 1.00 1.03 1.00 1.08 1.10 1.10 1.21 1.39 1.62 1.84 1.89 1.89 1.86 1.84 1.85 1.98 2.17 2.28 2.43 2.55 2.49 2.56 2.71 2.67 2.69 2.69 2.60
1.59 1.57 1.41 1.27 1.21 1.23 1.20 1.26 1.21 1.14 1.11 1.09 1.11 1.09 1.07 1.09 1.17 1.20 1.25 1.20 1.21 1.31 1.31 1.33 1.41 1.59 1.77 1.81 1.83 1.82 1.77 1.75 1.88 2.13 2.25 2.33 2.40 2.37 2.43 2.47 2.53 2.59 2.62 2.54
2.03 1.99 1.79 1.62 1.42 1.37 1.24 1.25 1.22 1.11 1.08 1.03 0.96 0.99 1.01 0.99 1.08 1.15 1.21 1.24 1.24 1.32 1.39 1.38 1.42 1.60 1.74 1.80 1.87 1.93 1.91 1.90 2.03 2.12 2.20 2.37 2.44 2.46 2.47 2.44 2.42 2.41 2.40 2.33
2.31 2.12 2.01 1.93 1.54 1.45 1.48 1.35 1.24 1.23 1.19 1.10 0.98 0.96 1.00 1.01 1.08 1.14 1.20 1.33 1.38 1.44 1.45 1.42 1.43 1.55 1.69 1.88 2.05 2.11 2.04 2.03 2.03 2.02 2.08 2.11 2.15 2.11 2.08 2.01 2.01 1.98 1.97 1.88
1.74 1.80 1.89 2.01 1.80 1.53 1.45 1.36 1.28 1.27 1.24 1.15 1.06 1.03 0.96 0.95 1.07 1.16 1.26 1.40 1.58 1.64 1.54 1.49 1.54 1.62 1.70 1.85 2.08 2.20 2.11 1.98 1.89 1.85 1.87 1.87 1.94 2.01 2.05 1.94 1.87 1.78 1.70 1.59
1.69 1.93 2.07 2.02 2.06 1.93 1.64 1.46 1.31 1.26 1.23 1.13 1.08 1.06 1.05 1.03 1.05 1.17 1.35 1.44 1.46 1.54 1.54 1.48 1.50 1.59 1.68 1.85 2.12 2.25 2.15 2.02 1.82 1.74 1.76 1.79 1.91 1.97 1.97 1.96 1.92 1.72 1.57 1.48
1.83 1.93 2.02 1.88 1.85 1.88 1.88 1.80 1.61 1.45 1.30 1.23 1.19 1.18 1.16 1.14 1.16 1.22 1.31 1.46 1.56 1.58 1.48 1.43 1.45 1.51 1.58 1.73 1.92 2.07 2.11 2.00 1.86 1.80 1.82 1.78 1.76 1.82 1.81 1.80 1.85 1.77 1.58 1.51
1.75 1.67 1.74 1.83 1.87 1.77 1.75 1.82 1.76 1.61 1.39 1.30 1.32 1.30 1.24 1.24 1.29 1.34 1.40 1.52 1.77 1.90 1.75 1.58 1.51 1.49 1.54 1.67 1.77 1.76 1.80 1.80 1.77 1.80 1.80 1.74 1.74 1.76 1.81 1.87 1.90 1.82 1.68 1.58
1.61 1.50 1.51 1.64 1.74 1.79 1.75 1.66 1.61 1.54 1.47 1.39 1.37 1.35 1.32 1.33 1.42 1.57 1.66 1.71 1.74 1.72 1.71 1.72 1.65 1.57 1.63 1.74 1.83 1.75 1.63 1.55 1.51 1.49 1.54 1.61 1.63 1.70 1.82 1.88 1.88 1.77 1.56 1.43
1.33 1.31 1.37 1.45 1.53 1.69 1.72 1.59 1.51 1.46 1.44 1.42 1.40 1.38 1.37 1.43 1.66 1.92 1.96 1.88 1.87 1.73 1.58 1.58 1.61 1.62 1.70 1.75 1.84 1.84 1.71 1.52 1.35 1.29 1.33 1.43 1.61 1.75 1.80 1.73 1.65 1.58 1.47 1.37
1.11 1.13 1.19 1.25 1.31 1.41 1.51 1.56 1.57 1.50 1.42 1.41 1.51 1.57 1.58 1.59 1.77 2.02 2.08 2.07 2.05 1.91 1.62 1.47 1.50 1.50 1.60 1.67 1.76 1.72 1.53 1.35 1.18 1.14 1.20 1.33 1.55 1.83 1.82 1.62 1.49 1.42 1.42 1.40
1.10 1.09 1.12 1.13 1.14 1.19 1.30 1.39 1.43 1.47 1.48 1.50 1.56 1.61 1.68 1.74 1.92 2.11 2.20 2.23 2.10 1.87 1.63 1.43 1.31 1.30 1.35 1.51 1.61 1.55 1.41 1.26 1.13 1.10 1.16 1.27 1.51 1.77 1.70 1.53 1.43 1.43 1.41 1.42
1.10 1.08 1.07 1.11 1.14 1.13 1.18 1.25 1.29 1.40 1.50 1.54 1.67 1.78 1.82 1.81 1.94 2.17 2.35 2.30 1.96 1.64 1.47 1.42 1.25 1.15 1.18 1.38 1.45 1.36 1.31 1.23 1.14 1.14 1.22 1.39 1.64 1.77 1.64 1.50 1.44 1.41 1.40 1.46
1.12 1.08 1.08 1.16 1.21 1.20 1.21 1.25 1.26 1.33 1.44 1.46 1.58 1.73 1.75 1.85 1.85 1.85 1.94 2.10 1.92 1.68 1.36 1.21 1.16 1.18 1.25 1.36 1.36 1.29 1.28 1.24 1.21 1.26 1.35 1.47 1.60 1.64 1.59 1.52 1.53 1.47 1.42 1.45
1.14 1.11 1.10 1.16 1.27 1.30 1.21 1.22 1.25 1.36 1.48 1.45 1.47 1.55 1.69 1.84 1.83 1.84 1.73 1.59 1.55 1.51 1.29 1.16 1.16 1.21 1.26 1.26 1.32 1.33 1.35 1.31 1.23 1.24 1.34 1.44 1.52 1.54 1.57 1.59 1.54 1.47 1.47 1.45
1.09 1.12 1.15 1.14 1.20 1.32 1.39 1.33 1.29 1.35 1.43 1.34 1.28 1.28 1.42 1.57 1.57 1.50 1.54 1.57 1.50 1.45 1.29 1.22 1.18 1.16 1.19 1.17 1.26 1.35 1.41 1.33 1.23 1.21 1.29 1.37 1.40 1.45 1.58 1.67 1.60 1.50 1.43 1.35
1.17 1.21 1.24 1.24 1.30 1.42 1.47 1.42 1.41 1.43 1.43 1.33 1.24 1.17 1.17 1.36 1.46 1.37 1.40 1.42 1.40 1.34 1.25 1.24 1.21 1.24 1.22 1.25 1.27 1.27 1.23 1.14 1.11 1.14 1.23 1.33 1.37 1.39 1.45 1.46 1.38 1.38 1.37 1.32
1.29 1.25 1.24 1.26 1.28 1.32 1.33 1.45 1.56 1.56 1.58 1.53 1.34 1.13 1.07 1.16 1.24 1.32 1.39 1.37 1.37 1.39 1.25 1.17 1.14 1.17 1.19 1.27 1.29 1.20 1.08 1.04 1.04 1.05 1.13 1.26 1.27 1.32 1.36 1.32 1.24 1.26 1.25 1.22
1.22 1.19 1.20 1.22 1.21 1.18 1.18 1.28 1.43 1.57 1.72 1.73 1.48 1.17 1.09 1.14 1.23 1.30 1.33 1.35 1.40 1.41 1.34 1.20 1.12 1.10 1.12 1.15 1.16 1.10 1.04 0.97 0.96 1.00 1.06 1.07 1.11 1.19 1.25 1.28 1.20 1.18 1.19 1.18